Elwood, MO

9:15 PM CDT on September 28, 2016 (GMT -0500)
Rosecrans Memorial

Weather History for KSTJ - July, 2013

Change the Weather History Date:

Monday, July 1, 2013

  Actual Average Record
Temperature  
Mean Temperature 69 °F 76 °F  
Max Temperature 84 °F 86 °F 102 °F (1933)
Min Temperature 54 °F 66 °F 51 °F (1968)
Degree Days  
Heating Degree Days 0 0  
Month to date heating degree days 0 0  
Since 1 June heating degree days 15 8  
Since 1 July heating degree days 0 0  
Cooling Degree Days 4 11  
Month to date cooling degree days 4 11  
Year to date cooling degree days 405 391  
Since 1 June cooling degree days 279 278  
Growing Degree Days 20 (Base 50)    
Moisture  
Dew Point 52 °F    
Average Humidity 59    
Maximum Humidity 86    
Minimum Humidity 31    
Precipitation  
Precipitation 0.00 in 0.16 in 1.06 in (1906)
Month to date precipitation 0.00 0.16  
Year to date precipitation 16.14 17.29  
Sea Level Pressure  
Sea Level Pressure 30.09 in    
Wind  
Wind Speed 9 mph (NNE)    
Max Wind Speed 20 mph    
Max Gust Speed 26 mph    
Visibility 9 miles    
Events      
T = Trace of Precipitation, MM = Missing Value Source: NWS Daily Summary

Daily Weather History Graph

Daily Weather History Graph

Search for Another Location

Airport or City:

Trip Planner

Search our weather history database for the weather conditions in past years. The results will help you decide how hot, cold, wet, or windy it might be!

Date:

Astronomy

Jul. 01, 2013 Rise Set
Actual Time 5:55 AM CDT 8:51 PM CDT
Civil Twilight 5:22 AM CDT 9:24 PM CDT
Nautical Twilight 4:41 AM CDT 10:05 PM CDT
Astronomical Twilight 3:54 AM CDT 10:52 PM CDT
Moon 1:25 AM CDT (7/1) 3:08 PM CDT (7/1)
Length of Visible Light 16h 01m
Length of Day
14h 56m
Waning Crescent, 35% of the Moon is Illuminated
Jul 1
Waning Crescent
Jul 8
New
Jul 15
First Quarter
Jul 22
Full
Jul 29
Last Quarter

Hourly Weather History & Observations

Time (CDT) Temp. Dew Point Humidity Pressure Visibility Wind Dir Wind Speed Gust Speed Precip Events Conditions
12:53 AM 62.1 °F 53.1 °F 72% 30.06 in 9.0 mi NNW 6.9 mph - N/A   Clear
1:53 AM 61.0 °F 51.1 °F 70% 30.06 in 8.0 mi North 8.1 mph - N/A   Clear
2:53 AM 57.0 °F 51.1 °F 81% 30.06 in 7.0 mi North 5.8 mph - N/A   Clear
3:53 AM 57.9 °F 51.1 °F 78% 30.07 in 7.0 mi North 5.8 mph - N/A   Clear
4:53 AM 55.9 °F 50.0 °F 80% 30.09 in 8.0 mi North 3.5 mph - N/A   Clear
5:53 AM 55.9 °F 51.1 °F 84% 30.10 in 7.0 mi North 3.5 mph - N/A   Scattered Clouds
6:53 AM 57.0 °F 52.0 °F 83% 30.11 in 6.0 mi North 4.6 mph - N/A   Clear
7:53 AM 61.0 °F 54.0 °F 78% 30.12 in 7.0 mi North 5.8 mph - N/A   Clear
8:53 AM 66.0 °F 54.0 °F 65% 30.13 in 9.0 mi North 6.9 mph - N/A   Clear
9:53 AM 73.0 °F 55.9 °F 55% 30.13 in 10.0 mi North 9.2 mph - N/A   Clear
10:53 AM 77.0 °F 52.0 °F 42% 30.12 in 10.0 mi NNE 12.7 mph - N/A   Clear
11:53 AM 80.1 °F 51.1 °F 36% 30.12 in 10.0 mi North 13.8 mph - N/A   Clear
12:53 PM 80.1 °F 50.0 °F 35% 30.11 in 10.0 mi North 11.5 mph 21.9 mph N/A   Partly Cloudy
1:53 PM 82.0 °F 48.0 °F 30% 30.10 in 10.0 mi ENE 16.1 mph 20.7 mph N/A   Clear
2:53 PM 84.0 °F 50.0 °F 31% 30.09 in 10.0 mi NE 16.1 mph 24.2 mph N/A   Clear
3:53 PM 82.9 °F 50.0 °F 32% 30.08 in 10.0 mi NNE 15.0 mph 19.6 mph N/A   Scattered Clouds
4:53 PM 82.9 °F 50.0 °F 32% 30.06 in 10.0 mi NE 12.7 mph - N/A   Partly Cloudy
5:53 PM 82.0 °F 48.9 °F 31% 30.06 in 10.0 mi NNE 13.8 mph 21.9 mph N/A   Clear
6:53 PM 81.0 °F 51.1 °F 35% 30.06 in 10.0 mi NE 11.5 mph - N/A   Clear
7:53 PM 78.1 °F 53.1 °F 42% 30.06 in 10.0 mi NE 8.1 mph - N/A   Clear
8:53 PM 72.0 °F 57.0 °F 59% 30.07 in 10.0 mi North 4.6 mph - N/A   Clear
9:53 PM 66.9 °F 55.9 °F 68% 30.07 in 10.0 mi North 5.8 mph - N/A   Clear
10:53 PM 64.0 °F 55.0 °F 73% 30.09 in 10.0 mi North 4.6 mph - N/A   Clear
11:53 PM 64.0 °F 55.0 °F 73% 30.09 in 10.0 mi North 6.9 mph - N/A   Clear